Flag for United Kingdom Weather past 2 weeks in Swindon, England, United Kingdom

Now
63 °F

Scattered clouds.


Feels Like: 63 °F
Forecast: 47 / 63 °F
Wind: 6 mph from North

Location: Brize Norton

Current Time: Sep 1, 2015 at 1:40:52 PM

Latest Report: Sep 1, 2015 at 12:50 PM


Visibility: N/A

Pressure: 30.09 "Hg

Humidity: 77%

Dew point: 55 °F

Location of SwindonLocation

Historic Weather in Swindon — Graph

°F

Swindon temperature yesterday

Maximum temperature yesterday: 59 °F (at 12:50 AM)
Minimum temperature yesterday: 55 °F (at 9:50 PM)
Average temperature yesterday: 57 °F

Past Weeks' High & Low Weather Summary

 TemperatureHumidityPressure
High84 °F (Aug 22, 4:50 PM)100% (Aug 19, 5:50 AM)30.12 "Hg (Aug 19, 5:50 AM)
Low45 °F (Aug 28, 5:50 AM)37% (Aug 22, 4:50 PM)29.47 "Hg (Aug 24, 9:50 AM)
Average61 °F81%29.89 "Hg
* Reported Aug 17 11:50 AM — Sep 1 11:50 AM, Swindon, Weather by CustomWeather, © 2015

Note: Actual official high and low records may vary slightly from our data, if they occured in-between our weather recording intervals... More about our weather records

Advertising

Swindon weather history for previous 24 hours

 ConditionsComfort  
Time TempWeatherWind HumidityBarometerVisibility
11:50 AM
Tue, Sep 1
59 °FBroken clouds.7 mph82%30.09 "HgN/A
10:50 AM59 °FScattered clouds.8 mph88%30.07 "HgN/A
9:50 AM55 °FPartly sunny.9 mph94%30.07 "HgN/A
7:50 AM54 °FLight rain. Partly sunny.5 mph94%30.04 "HgN/A
6:50 AM54 °FPartly cloudy.2 mph94%30.04 "HgN/A
6:03 AM54 °FFog.7 mph94%30.04 "Hg4 mi
5:50 AM54 °FFog.9 mph100%30.04 "Hg4 mi
3:50 AM55 °FFog.3 mph94%30.04 "Hg3 mi
2:50 AM55 °FFog.5 mph94%30.01 "Hg3 mi
1:50 AM55 °FFog.3 mph94%30.04 "Hg3 mi
12:50 AM55 °FFog.5 mph100%30.04 "Hg4 mi
11:50 PM
Mon, Aug 31
55 °FLow clouds.6 mph100%30.01 "Hg4 mi
10:50 PM55 °FLight rain. Passing clouds.8 mph100%30.01 "Hg4 mi
9:50 PM55 °FPassing clouds.7 mph100%30.01 "Hg4 mi
8:50 PM57 °FSunny.5 mph94%30.01 "Hg10 mi
7:50 PM57 °FPartly sunny.7 mph94%29.98 "HgN/A
6:50 PM57 °FPartly sunny.10 mph94%29.98 "HgN/A
5:50 PM57 °FBroken clouds.9 mph94%29.98 "HgN/A
4:50 PM57 °FBroken clouds.13 mph94%29.98 "HgN/A
3:50 PM57 °FCloudy.10 mph94%29.95 "HgN/A
2:50 PM57 °FDrizzle. Cloudy.12 mph100%29.95 "Hg4 mi
1:50 PM57 °FDrizzle. More clouds than sun.12 mph100%29.95 "Hg4 mi
Weather by CustomWeather, © 2015

See weather overviewHow to use our weather pages